Weather History for Cooperstown, ND

Change the Weather History Date:

Wednesday, February 27, 2013

  Actual Average (KJMS) Record (KJMS)
Temperature  
Mean Temperature 18 °F 20 °F  
Max Temperature 28 °F 29 °F 60 °F (1924)
Min Temperature 8 °F 11 °F -25 °F (1925)
Degree Days  
Heating Degree Days 47 45  
Month to date heating degree days 1352  
Since 1 July heating degree days 6714  
Cooling Degree Days 0 0  
Month to date cooling degree days 0  
Year to date cooling degree days 0  
Moisture  
Dew Point 18 °F    
Average Humidity 95    
Maximum Humidity 100    
Minimum Humidity 86    
Precipitation  
Precipitation 0.00 in 0.02 in 1.18 in (1958)
Month to date precipitation 0.38  
Year to date precipitation 0.83  
Sea Level Pressure  
Sea Level Pressure 30.13 in    
Wind  
Wind Speed 12 mph (NNW)    
Max Wind Speed 25 mph    
Max Gust Speed 25 mph    
Visibility 10 miles    
Events      
T = Trace of Precipitation, MM = Missing Value Source: NWS Daily Summary

Daily Weather History Graph

Daily Weather History Graph

Search for Another Location

Airport:

Trip Planner

Search our weather history database for the weather conditions in past years. The results will help you decide how hot, cold, wet, or windy it might be!

Date:

Astronomy

Feb. 27, 2013 Rise Set
Actual Time 7:15 AM CST 6:14 PM CST
Civil Twilight 6:45 AM CST 6:45 PM CST
Nautical Twilight 6:09 AM CST 7:21 PM CST
Astronomical Twilight 5:34 AM CST 7:57 PM CST
Moon 8:51 PM CST (2/27) 7:40 AM CST (2/27)
Length of Visible Light 12h 00m
Length of Day
10h 59m
Waning Gibbous, 96% of the Moon is Illuminated
Feb 27
Waning Gibbous
Mar 4
Last Quarter
Mar 11
New
Mar 19
First Quarter
Mar 27
Full

Hourly Weather History & Observations

Time (CST) Temp. Windchill Dew Point Humidity Pressure Visibility Wind Dir Wind Speed Gust Speed Precip Events Conditions
12:15 AM 10.4 °F -2.4 °F 10.4 °F 100% 30.06 in 8.0 mi NW 9.2 mph - N/A   Clear
12:35 AM 14.0 °F 3.9 °F 12.2 °F 93% 30.06 in 10.0 mi NW 6.9 mph - N/A   Clear
12:55 AM 12.2 °F 2.9 °F 12.2 °F 100% 30.07 in 10.0 mi NW 5.8 mph - N/A   Clear
1:15 AM 12.2 °F 6.1 °F 10.4 °F 92% 30.06 in 10.0 mi NW 3.5 mph - N/A   Clear
1:35 AM 10.4 °F -0.4 °F 10.4 °F 100% 30.07 in 10.0 mi North 6.9 mph - N/A   Clear
2:15 AM 8.6 °F -1.3 °F 6.8 °F 92% 30.07 in 10.0 mi NW 5.8 mph - N/A   Clear
2:55 AM 8.6 °F -1.3 °F 8.6 °F 100% 30.07 in 10.0 mi North 5.8 mph - N/A   Clear
3:15 AM 10.4 °F -0.4 °F 8.6 °F 92% 30.07 in 10.0 mi NNW 6.9 mph - N/A   Partly Cloudy
3:35 AM 10.4 °F 2.2 °F 10.4 °F 100% 30.07 in 10.0 mi NNW 4.6 mph - N/A   Mostly Cloudy
3:55 AM 8.6 °F -2.6 °F 8.6 °F 100% 30.07 in 10.0 mi NW 6.9 mph - N/A   Overcast
4:15 AM 10.4 °F -3.3 °F 10.4 °F 100% 30.07 in 10.0 mi NW 10.4 mph - N/A   Scattered Clouds
4:35 AM 10.4 °F -1.5 °F 8.6 °F 92% 30.07 in 10.0 mi NW 8.1 mph - N/A   Clear
4:55 AM 8.6 °F -2.6 °F 8.6 °F 100% 30.07 in 9.0 mi NW 6.9 mph - N/A   Scattered Clouds
5:15 AM 10.4 °F -1.5 °F 8.6 °F 92% 30.08 in 10.0 mi NNW 8.1 mph - N/A   Partly Cloudy
5:35 AM 10.4 °F -4.1 °F 10.4 °F 100% 30.08 in 10.0 mi NW 11.5 mph - N/A   Mostly Cloudy
5:55 AM 10.4 °F -1.5 °F 10.4 °F 100% 30.08 in 10.0 mi NW 8.1 mph - N/A   Scattered Clouds
6:15 AM 10.4 °F -2.4 °F 10.4 °F 100% 30.09 in 10.0 mi NNW 9.2 mph - N/A   Scattered Clouds
6:35 AM 15.8 °F 4.2 °F 15.8 °F 100% 30.09 in 10.0 mi NNW 9.2 mph - N/A   Overcast
6:55 AM 15.8 °F 3.4 °F 15.8 °F 100% 30.10 in 10.0 mi NNW 10.4 mph - N/A   Overcast
7:35 AM 17.6 °F 6.4 °F 17.6 °F 100% 30.10 in 9.0 mi NW 9.2 mph - N/A   Overcast
7:55 AM 17.6 °F 7.3 °F 17.6 °F 100% 30.11 in 10.0 mi NNW 8.1 mph - N/A   Overcast
8:15 AM 17.6 °F 3.7 °F 17.6 °F 100% 30.11 in 10.0 mi NNW 13.8 mph - N/A   Overcast
8:35 AM 19.4 °F 6.0 °F 19.4 °F 100% 30.11 in 10.0 mi NNW 13.8 mph - N/A   Overcast
8:55 AM 19.4 °F 5.5 °F 19.4 °F 100% 30.12 in 10.0 mi NNW 15.0 mph - N/A   Overcast
9:15 AM 19.4 °F 5.5 °F 19.4 °F 100% 30.12 in 10.0 mi North 15.0 mph - N/A   Mostly Cloudy
9:35 AM 21.2 °F 7.3 °F 19.4 °F 93% 30.12 in 10.0 mi North 16.1 mph - N/A   Mostly Cloudy
9:55 AM 23.0 °F 9.6 °F 21.2 °F 93% 30.12 in 10.0 mi NNW 16.1 mph - N/A   Mostly Cloudy
10:15 AM 23.0 °F 8.7 °F 23.0 °F 100% 30.12 in 10.0 mi North 18.4 mph - N/A   Mostly Cloudy
10:35 AM 23.0 °F 9.2 °F 23.0 °F 100% 30.12 in 10.0 mi North 17.3 mph - N/A   Mostly Cloudy
11:15 AM 24.8 °F 11.1 °F 24.8 °F 100% 30.12 in 10.0 mi North 18.4 mph - N/A   Partly Cloudy
11:35 AM 26.6 °F 12.4 °F 24.8 °F 93% 30.12 in 10.0 mi North 21.9 mph - N/A   Partly Cloudy
11:55 AM 26.6 °F 12.4 °F 24.8 °F 93% 30.12 in 10.0 mi North 21.9 mph - N/A   Scattered Clouds
12:15 PM 26.6 °F 13.4 °F 24.8 °F 93% 30.13 in 10.0 mi North 18.4 mph - N/A   Scattered Clouds
12:35 PM 26.6 °F 12.4 °F 24.8 °F 93% 30.12 in 10.0 mi North 21.9 mph - N/A   Scattered Clouds
12:55 PM 26.6 °F 12.0 °F 24.8 °F 93% 30.13 in 10.0 mi North 23.0 mph - N/A   Scattered Clouds
1:15 PM 28.4 °F 14.7 °F 24.8 °F 86% 30.13 in 10.0 mi North 21.9 mph 25.3 mph N/A   Clear
1:35 PM 28.4 °F 15.1 °F 24.8 °F 86% 30.13 in 10.0 mi North 20.7 mph 25.3 mph N/A   Clear
1:55 PM 28.4 °F 15.4 °F 24.8 °F 86% 30.13 in 10.0 mi North 19.6 mph - N/A   Clear
2:15 PM 28.4 °F 15.4 °F 26.6 °F 93% 30.13 in 10.0 mi North 19.6 mph - N/A   Partly Cloudy
2:35 PM 28.4 °F 14.7 °F 24.8 °F 86% 30.14 in 10.0 mi North 21.9 mph - N/A   Partly Cloudy
2:55 PM 28.4 °F 14.7 °F 24.8 °F 86% 30.13 in 10.0 mi North 21.9 mph - N/A   Partly Cloudy
3:15 PM 28.4 °F 13.8 °F 24.8 °F 86% 30.14 in 10.0 mi North 25.3 mph - N/A   Partly Cloudy
3:35 PM 26.6 °F 11.7 °F 24.8 °F 93% 30.14 in 10.0 mi North 24.2 mph - N/A   Partly Cloudy
3:55 PM 26.6 °F 12.7 °F 24.8 °F 93% 30.15 in 10.0 mi North 20.7 mph - N/A   Clear
4:15 PM 26.6 °F 11.7 °F 24.8 °F 93% 30.15 in 10.0 mi North 24.2 mph - N/A   Clear
4:35 PM 26.6 °F 12.7 °F 24.8 °F 93% 30.15 in 10.0 mi North 20.7 mph - N/A   Clear
4:55 PM 26.6 °F 13.1 °F 24.8 °F 93% 30.15 in 10.0 mi North 19.6 mph 25.3 mph N/A   Clear
5:15 PM 26.6 °F 12.7 °F 24.8 °F 93% 30.16 in 10.0 mi North 20.7 mph 25.3 mph N/A   Clear
5:35 PM 24.8 °F 11.1 °F 23.0 °F 93% 30.16 in 10.0 mi North 18.4 mph - N/A   Clear
5:55 PM 24.8 °F 11.5 °F 23.0 °F 93% 30.17 in 10.0 mi North 17.3 mph - N/A   Clear
6:15 PM 23.0 °F 8.7 °F 23.0 °F 100% 30.18 in 10.0 mi North 18.4 mph - N/A   Clear
6:35 PM 23.0 °F 9.2 °F 21.2 °F 93% 30.18 in 10.0 mi North 17.3 mph - N/A   Clear
6:55 PM 23.0 °F 8.3 °F 21.2 °F 93% 30.18 in 10.0 mi North 19.6 mph 23.0 mph N/A   Clear
7:15 PM 23.0 °F 9.2 °F 19.4 °F 86% 30.19 in 10.0 mi North 17.3 mph - N/A   Clear
7:35 PM 21.2 °F 6.4 °F 19.4 °F 93% 30.19 in 10.0 mi North 18.4 mph - N/A   Clear
7:55 PM 21.2 °F 6.0 °F 19.4 °F 93% 30.19 in 10.0 mi North 19.6 mph - N/A   Clear
8:15 PM 19.4 °F 4.1 °F 19.4 °F 100% 30.19 in 10.0 mi North 18.4 mph - N/A   Clear
8:35 PM 19.4 °F 4.5 °F 19.4 °F 100% 30.20 in 10.0 mi North 17.3 mph - N/A   Clear
8:55 PM 19.4 °F 4.5 °F 19.4 °F 100% 30.20 in 10.0 mi North 17.3 mph - N/A   Clear
9:15 PM 19.4 °F 5.0 °F 19.4 °F 100% 30.20 in 10.0 mi North 16.1 mph - N/A   Clear
9:35 PM 19.4 °F 4.5 °F 19.4 °F 100% 30.20 in 10.0 mi North 17.3 mph - N/A   Clear
9:55 PM 19.4 °F 4.1 °F 17.6 °F 93% 30.20 in 10.0 mi North 18.4 mph - N/A   Clear
10:15 PM 19.4 °F 4.1 °F 17.6 °F 93% 30.19 in 10.0 mi North 18.4 mph - N/A   Clear
10:35 PM 19.4 °F 5.0 °F 17.6 °F 93% 30.19 in 10.0 mi North 16.1 mph - N/A   Clear
10:55 PM 19.4 °F 6.0 °F 17.6 °F 93% 30.19 in 10.0 mi North 13.8 mph - N/A   Clear
11:15 PM 19.4 °F 6.6 °F 17.6 °F 93% 30.20 in 10.0 mi North 12.7 mph - N/A   Clear
11:35 PM 17.6 °F 5.7 °F 17.6 °F 100% 30.20 in 10.0 mi North 10.4 mph - N/A   Clear
11:55 PM 17.6 °F 7.3 °F 15.8 °F 93% 30.20 in 10.0 mi NNW 8.1 mph - N/A   Clear